Language: 


Des rapports , des résumés tant et plus, au choix de chacun....


Données Historiques de Météogheer
Journalier Rapport pour Décembre 12, 2017 Unitée:  Impériale    Métrique   Les deux
Suivant Jour »
Journalier Hebdomadaire Mensuel Annuel Sur mesure
  Max: Min: Moyenne:
Température: 44.1 °F 31.6 °F 36.1 °F
Point de rosée: 42.8 °F 30.2 °F 35.8 °F
Humidité: 98% 86% 97%
Vent: 12.3mph 0mph 4.4mph
Rafales: 13mph - -
Vent- - WSW
Pression: 29.9 in 0 in -
Pluie: 0.28 in    
Historical Graphs
 
 
Données tabulaires pour Décembre 12, 2017
Heure Température Point de rosée Pression Vent Vent Rafales Humidité Pluie Taux (Horaire) Conditions
00:00 36.1 °F 37.4 °F 29.3 in West 4.5 mph 5.6 mph 98% 0.02 in
00:05 36 °F 35.6 °F 29.3 in WSW 4.3 mph 6.7 mph 98% 0.02 in
00:15 36.1 °F 37.4 °F 29.3 in West 3.6 mph 7.6 mph 98% 0.02 in
00:25 36 °F 35.6 °F 29.3 in West 4 mph 5.6 mph 98% 0.01 in
00:30 35.8 °F 35.6 °F 29.3 in WSW 3.4 mph 5.8 mph 98% 0.01 in
00:36 35.6 °F 35.6 °F 29.3 in West 6 mph 8.5 mph 98% 0.03 in
00:51 35.4 °F 35.6 °F 29.3 in WSW 7.6 mph 7.6 mph 98% 0.01 in
01:01 35.2 °F 35.6 °F 29.3 in West 9.4 mph 9.4 mph 98% 0.01 in
01:11 35.1 °F 35.6 °F 29.4 in WSW 3.8 mph 9.4 mph 98% 0.01 in
01:16 35.2 °F 35.6 °F 29.4 in WSW 1.6 mph 9.6 mph 98% 0.01 in
01:26 35.6 °F 35.6 °F 29.4 in West 3.4 mph 7.8 mph 98% 0.01 in
01:31 35.8 °F 35.6 °F 29.4 in North 5.8 mph 7.6 mph 98% 0.01 in
01:36 36 °F 35.6 °F 29.4 in WNW 6.3 mph 7.4 mph 98% 0 in
01:41 36.1 °F 37.4 °F 29.4 in NW 10.1 mph 10.1 mph 98% 0 in
01:46 36.3 °F 37.4 °F 29.4 in WSW 6.5 mph 11.4 mph 98% 0 in
01:51 36.3 °F 37.4 °F 29.4 in WNW 7.4 mph 11.4 mph 98% 0 in
02:01 36.1 °F 37.4 °F 29.4 in West 3.8 mph 8.7 mph 98% 0.01 in
02:11 35.8 °F 35.6 °F 29.4 in WSW 8.5 mph 11.9 mph 98% 0.01 in
02:22 35.4 °F 35.6 °F 29.4 in West 5.4 mph 8.5 mph 98% 0.01 in
02:27 35.4 °F 35.6 °F 29.4 in NE 3.4 mph 9.4 mph 98% 0.01 in
02:37 36.1 °F 37.4 °F 29.4 in Calm   10.1 mph 98% 0.02 in
02:42 36.1 °F 37.4 °F 29.4 in WNW 3.8 mph 10.1 mph 98% 0.03 in
02:47 36.1 °F 37.4 °F 29.4 in West 2.9 mph 5.8 mph 98% 0.03 in
02:57 35.8 °F 35.6 °F 29.4 in WNW 0.9 mph 6.3 mph 98% 0.03 in
03:02 35.6 °F 35.6 °F 0 in Calm   5.3 mph 98% 0.03 in
03:07 35.4 °F 35.6 °F 29.4 in Calm   4.9 mph 98% 0.05 in
03:12 35.2 °F 35.6 °F 29.5 in Calm   4 mph 98% 0.05 in
03:17 35.1 °F 35.6 °F 29.5 in West 3.1 mph 4.9 mph 98% 0.06 in
03:22 34.9 °F 35.6 °F 29.5 in West 5.6 mph 6 mph 98% 0.06 in
03:27 34.9 °F 35.6 °F 29.5 in West 3.1 mph 6 mph 98% 0.07 in
03:32 34.7 °F 35.6 °F 29.5 in WSW 3.6 mph 6 mph 98% 0.07 in
03:35 34.5 °F 33.8 °F 29.5 in WSW 2 mph 6 mph 98% 0.06 in
03:40 34.3 °F 33.8 °F 29.5 in WSW 5.4 mph 5.6 mph 98% 0.06 in
03:45 34.3 °F 33.8 °F 29.5 in WSW 5.8 mph 6.5 mph 98% 0.06 in
03:50 34.2 °F 33.8 °F 29.5 in WSW 6.7 mph 6.7 mph 98% 0.07 in
03:55 34 °F 33.8 °F 29.5 in WSW 5.4 mph 7.4 mph 98% 0.06 in
04:00 34 °F 33.8 °F 29.5 in West 7.4 mph 8.5 mph 98% 0.05 in
04:05 34.2 °F 33.8 °F 29.5 in West 7.8 mph 8.5 mph 98% 0.05 in
04:10 34.2 °F 33.8 °F 29.5 in West 4.9 mph 8.5 mph 98% 0.05 in
04:15 34 °F 33.8 °F 29.5 in WSW 5.6 mph 8.7 mph 98% 0.05 in
04:20 34 °F 33.8 °F 29.5 in WSW 5.8 mph 8.7 mph 98% 0.05 in
04:25 34 °F 33.8 °F 29.5 in WSW 5.4 mph 8.5 mph 98% 0.05 in
04:30 33.8 °F 33.8 °F 29.5 in West 4.9 mph 7.8 mph 98% 0.05 in
04:40 34 °F 33.8 °F 29.5 in WSW 3.6 mph 6 mph 98% 0.05 in
04:45 34 °F 33.8 °F 29.5 in Calm   5.8 mph 98% 0.05 in
04:50 34 °F 33.8 °F 29.5 in West 0.9 mph 4.9 mph 98% 0.03 in
05:05 34.3 °F 33.8 °F 29.5 in Calm   2.7 mph 98% 0.05 in
05:10 34.3 °F 33.8 °F 29.6 in Calm   2.7 mph 98% 0.05 in
05:21 34.3 °F 33.8 °F 29.6 in West 4.3 mph 5.4 mph 98% 0.03 in
05:26 34.5 °F 33.8 °F 29.6 in West 6 mph 7.6 mph 98% 0.04 in
05:31 34.9 °F 35.6 °F 29.6 in West 6.3 mph 7.6 mph 98% 0.04 in
05:36 34.9 °F 35.6 °F 29.6 in West 5.6 mph 7.6 mph 98% 0.04 in
05:41 34.9 °F 35.6 °F 29.6 in WSW 3.8 mph 8.5 mph 98% 0.03 in
05:46 34.9 °F 35.6 °F 29.6 in West 4.3 mph 8.5 mph 98% 0.03 in
05:51 35.1 °F 35.6 °F 29.6 in WSW 7.4 mph 8.7 mph 98% 0.04 in
05:52 35.1 °F 35.6 °F 29.6 in West 7.2 mph 8.7 mph 98% 0.04 in
05:57 35.1 °F 35.6 °F 29.6 in WSW 9.6 mph 10.7 mph 98% 0.03 in
06:02 35.1 °F 35.6 °F 29.6 in WSW 6 mph 12.5 mph 98% 0.03 in
06:07 35.1 °F 35.6 °F 29.6 in West 6.7 mph 12.5 mph 98% 0.03 in
06:17 35.1 °F 35.6 °F 29.6 in WSW 12.3 mph 12.3 mph 98% 0.03 in
06:22 35.1 °F 35.6 °F 29.6 in West 4.3 mph 12.3 mph 98% 0.01 in
06:27 35.1 °F 35.6 °F 29.6 in WSW 4.9 mph 10.1 mph 98% 0.01 in
06:37 35.1 °F 35.6 °F 29.6 in WSW 5.8 mph 13 mph 98% 0.01 in
06:42 35.1 °F 35.6 °F 29.6 in West 5.4 mph 13 mph 98% 0.01 in
06:47 35.2 °F 35.6 °F 29.6 in West 10.3 mph 10.7 mph 98% 0 in
06:52 35.2 °F 35.6 °F 29.6 in West 7.8 mph 10.3 mph 98% 0 in
06:57 35.2 °F 35.6 °F 29.6 in WSW 10.5 mph 10.5 mph 98% 0.01 in
07:02 35.2 °F 35.6 °F 29.6 in West 6.3 mph 10.5 mph 98% 0.01 in
07:07 35.2 °F 35.6 °F 29.6 in WSW 4.3 mph 10.5 mph 98% 0.01 in
07:13 35.2 °F 35.6 °F 29.6 in West 5.8 mph 9.8 mph 98% 0.01 in
07:18 35.4 °F 35.6 °F 29.6 in West 3.1 mph 8.7 mph 98% 0.01 in
07:23 35.2 °F 35.6 °F 29.6 in West 7.2 mph 8.5 mph 98% 0.01 in
07:33 35.2 °F 35.6 °F 29.6 in SW 7.2 mph 7.6 mph 98% 0.01 in
07:43 35.1 °F 35.6 °F 29.6 in West 5.4 mph 8.7 mph 98% 0.01 in
07:48 35.1 °F 35.6 °F 29.6 in WSW 3.8 mph 8.7 mph 98% 0.01 in
07:53 34.9 °F 35.6 °F 29.6 in WSW 4.3 mph 7.8 mph 98% 0.01 in
08:03 34.9 °F 35.6 °F 29.6 in West 6.3 mph 8.1 mph 98% 0 in
08:08 34.7 °F 35.6 °F 29.6 in West 4.3 mph 8.1 mph 98% 0.01 in
08:13 34.7 °F 35.6 °F 29.7 in WSW 6.3 mph 7.6 mph 98% 0.01 in
08:18 34.7 °F 35.6 °F 29.7 in West 7.4 mph 8.5 mph 98% 0.01 in
08:23 34.7 °F 35.6 °F 29.7 in West 8.1 mph 8.9 mph 98% 0.01 in
08:28 34.7 °F 35.6 °F 29.6 in WSW 8.5 mph 10.1 mph 98% 0.01 in
08:33 34.5 °F 33.8 °F 29.6 in West 5.4 mph 10.5 mph 98% 0.01 in
08:38 34.5 °F 33.8 °F 29.6 in WSW 7.8 mph 10.5 mph 98% 0.01 in
08:43 34.5 °F 33.8 °F 29.7 in West 5.6 mph 9.8 mph 98% 0.01 in
08:48 34.5 °F 33.8 °F 29.7 in SW 4.9 mph 10.3 mph 98% 0.01 in
09:03 34.7 °F 35.6 °F 29.7 in Calm   8.7 mph 98% 0 in
09:08 34.7 °F 35.6 °F 29.7 in WSW 6.5 mph 6.5 mph 98% 0 in
09:13 34.7 °F 35.6 °F 29.7 in WSW 5.4 mph 6.5 mph 98% 0 in
09:18 34.9 °F 35.6 °F 29.7 in West 4.9 mph 6.5 mph 98% 0 in
09:28 34.9 °F 35.6 °F 29.7 in West 3.6 mph 8.7 mph 98% 0 in
09:39 35.1 °F 35.6 °F 29.7 in WSW 5.6 mph 7.4 mph 98% 0 in
09:44 35.2 °F 35.6 °F 29.7 in WSW 6.3 mph 7.4 mph 98% 0.01 in
09:54 35.2 °F 35.6 °F 29.7 in WSW 6 mph 7.6 mph 98% 0.01 in
10:04 35.4 °F 35.6 °F 29.7 in West 3.6 mph 6 mph 98% 0.01 in
10:09 35.4 °F 35.6 °F 29.7 in Calm   6.3 mph 98% 0.01 in
10:14 35.4 °F 35.6 °F 29.7 in West 4 mph 6.5 mph 98% 0.01 in
10:19 35.4 °F 35.6 °F 29.7 in WSW 4 mph 6.5 mph 98% 0.01 in
10:34 35.6 °F 35.6 °F 29.7 in WSW 9.4 mph 9.4 mph 98% 0.01 in
10:39 35.6 °F 35.6 °F 29.7 in WSW 6.3 mph 9.4 mph 98% 0.01 in
10:44 35.8 °F 35.6 °F 29.8 in WSW 6 mph 8.5 mph 98% 0 in
10:49 35.8 °F 35.6 °F 29.8 in WSW 7.6 mph 10.3 mph 98% 0 in
11:00 36 °F 35.6 °F 29.8 in WSW 7.6 mph 9.2 mph 98% 0 in
11:05 36 °F 35.6 °F 29.8 in SW 8.5 mph 9.6 mph 98% 0 in
11:10 36.1 °F 37.4 °F 29.8 in WSW 8.1 mph 12.8 mph 98% 0 in
11:15 36.1 °F 37.4 °F 29.8 in WSW 8.1 mph 12.8 mph 98% 0 in
11:20 36.1 °F 37.4 °F 29.8 in WSW 7.8 mph 10.1 mph 98% 0.01 in
11:25 36.1 °F 37.4 °F 29.8 in WSW 6.3 mph 9.4 mph 98% 0.01 in
11:30 36.1 °F 37.4 °F 29.8 in WSW 6 mph 10.7 mph 98% 0.01 in
11:36 36.3 °F 37.4 °F 29.8 in WSW 4 mph 10.7 mph 98% 0.01 in
11:41 36.5 °F 37.4 °F 29.8 in WSW 7.6 mph 10.1 mph 98% 0.01 in
11:51 36.9 °F 37.4 °F 29.8 in WSW 10.1 mph 11.2 mph 98% 0.01 in
11:56 36.9 °F 37.4 °F 29.8 in West 11 mph 12.3 mph 98% 0.01 in
12:01 36.9 °F 37.4 °F 29.8 in WSW 7.8 mph 12.3 mph 98% 0.01 in
12:06 37 °F 37.4 °F 29.8 in WSW 5.6 mph 11.2 mph 98% 0.01 in
12:11 37.2 °F 37.4 °F 29.8 in West 7.6 mph 8.5 mph 98% 0.01 in
12:16 37.2 °F 37.4 °F 29.8 in West 6 mph 10.1 mph 98% 0 in
12:21 37.4 °F 37.4 °F 29.8 in West 6 mph 10.1 mph 98% 0.01 in
12:26 37.4 °F 37.4 °F 29.8 in WSW 5.8 mph 9.6 mph 98% 0.01 in
12:31 37.6 °F 37.4 °F 29.8 in West 7.8 mph 9.6 mph 98% 0.01 in
12:36 37.9 °F 37.4 °F 29.8 in West 3.4 mph 8.1 mph 98% 0.01 in
12:41 38.7 °F 39.2 °F 29.8 in WSW 4.9 mph 7.8 mph 98% 0.01 in
12:46 39.2 °F 39.2 °F 29.8 in WSW 5.6 mph 6.9 mph 98% 0.01 in
13:02 40.1 °F 41 °F 29.8 in WSW 4.9 mph 7.4 mph 98% 0.01 in
13:07 40.3 °F 41 °F 29.8 in WSW 4.9 mph 6.9 mph 98% 0.01 in
13:17 40.8 °F 41 °F 29.8 in WSW 5.6 mph 7.2 mph 98% 0 in
13:22 41 °F 41 °F 29.8 in WSW 5.6 mph 7.2 mph 98% 0 in
13:32 41.9 °F 42.8 °F 29.8 in WSW 3.4 mph 6 mph 98% 0.01 in
13:37 42.1 °F 42.8 °F 29.8 in SW 5.8 mph 6 mph 98% 0.01 in
13:42 42.1 °F 42.8 °F 29.8 in WSW 4.3 mph 6.5 mph 98% 0.01 in
13:52 42.6 °F 42.8 °F 29.8 in WSW 6 mph 6 mph 97% 0.01 in
13:58 42.8 °F 42.8 °F 29.8 in WSW 3.1 mph 6 mph 96% 0.01 in
14:03 42.8 °F 42.8 °F 29.8 in West 2.9 mph 5.8 mph 96% 0.01 in
14:08 42.8 °F 42.8 °F 29.8 in West 5.4 mph 5.8 mph 95% 0.01 in
14:18 42.8 °F 41 °F 29.8 in West 2.5 mph 6.3 mph 94% 0.01 in
14:23 42.8 °F 41 °F 29.8 in WSW 4.7 mph 6.3 mph 94% 0.01 in
14:28 42.8 °F 41 °F 29.8 in Calm   6.3 mph 94% 0 in
14:38 43 °F 41 °F 29.8 in WSW 5.4 mph 6.3 mph 93% 0 in
14:43 43 °F 41 °F 29.8 in WSW 3.6 mph 6.3 mph 92% 0 in
14:48 43.2 °F 41 °F 29.8 in WSW 5.6 mph 6.5 mph 92% 0 in
14:53 43.2 °F 41 °F 29.8 in Calm   6.5 mph 91% 0 in
14:58 43.3 °F 41 °F 29.8 in WSW 3.8 mph 5.8 mph 90% 0.01 in
15:03 43.5 °F 41 °F 29.8 in WSW 3.6 mph 5.4 mph 90% 0.01 in
15:08 43.7 °F 42.8 °F 29.8 in Calm   4.3 mph 91% 0.01 in
15:13 44.1 °F 42.8 °F 29.8 in Calm   3.8 mph 91% 0.01 in
15:18 44.1 °F 41 °F 29.8 in WSW 2.7 mph 3.1 mph 90% 0.01 in
15:23 43.7 °F 41 °F 29.8 in WSW 5.8 mph 6 mph 89% 0.01 in
15:28 43 °F 39.2 °F 29.8 in West 5.8 mph 7.4 mph 87% 0.01 in
15:33 42.4 °F 39.2 °F 29.8 in WSW 5.6 mph 7.4 mph 87% 0.01 in
15:38 42.3 °F 39.2 °F 29.8 in WSW 6 mph 6.9 mph 87% 0.01 in
15:43 41.9 °F 39.2 °F 29.8 in WSW 6 mph 6 mph 86% 0.01 in
15:48 41.5 °F 37.4 °F 29.8 in Calm   6 mph 86% 0.01 in
15:53 41.2 °F 37.4 °F 29.8 in WSW 3.8 mph 5.6 mph 86% 0.01 in
15:58 40.6 °F 37.4 °F 29.9 in WSW 4.3 mph 4.7 mph 87% 0 in
16:04 39.9 °F 35.6 °F 29.9 in Calm   4.7 mph 86% 0 in
16:14 38.7 °F 35.6 °F 29.9 in WSW 3.4 mph 4.5 mph 87% 0 in
16:19 38.1 °F 35.6 °F 29.9 in Calm   4.3 mph 88% 0 in
16:34 37 °F 35.6 °F 29.9 in Calm   6 mph 89% 0 in
16:39 36.7 °F 33.8 °F 29.9 in WSW 5.4 mph 6.5 mph 90% 0 in
16:44 36.5 °F 33.8 °F 29.8 in Calm   6.5 mph 90% 0 in
16:49 36.1 °F 33.8 °F 29.8 in WSW 3.8 mph 5.4 mph 91% 0 in
16:54 36 °F 33.8 °F 29.8 in Calm   4.3 mph 92% 0 in
16:59 36 °F 33.8 °F 29.9 in Calm   3.6 mph 92% 0 in
17:04 35.8 °F 33.8 °F 29.9 in Calm     93% 0 in
17:09 35.8 °F 33.8 °F 29.9 in Calm     93% 0 in
17:14 35.8 °F 33.8 °F 29.9 in Calm     93% 0 in
17:19 35.1 °F 33.8 °F 29.9 in Calm     94% 0 in
17:24 34.5 °F 33.8 °F 29.9 in Calm     93% 0 in
17:39 33.6 °F 32 °F 29.9 in Calm     93% 0 in
17:41 33.4 °F 32 °F 29.9 in Calm     94% 0 in
17:46 33.3 °F 32 °F 29.9 in Calm     94% 0 in
17:51 33.1 °F 32 °F 29.9 in Calm   1.3 mph 95% 0 in
17:56 32.9 °F 32 °F 29.9 in Calm   1.3 mph 95% 0 in
18:06 32.7 °F 32 °F 29.9 in Calm   1.6 mph 96% 0 in
18:12 32.5 °F 32 °F 29.9 in Calm     96% 0 in
18:22 32.2 °F 32 °F 29.9 in Calm   2.5 mph 96% 0 in
18:27 32.2 °F 32 °F 29.9 in Calm   2.5 mph 97% 0 in
18:32 32 °F 30.2 °F 29.9 in Calm   2.5 mph 97% 0 in
18:42 31.6 °F 30.2 °F 29.9 in Calm   2 mph 97% 0 in
18:47 31.6 °F 30.2 °F 29.9 in Calm   2 mph 97% 0 in
18:52 32 °F 30.2 °F 29.9 in Calm   2 mph 98% 0 in
18:57 32 °F 30.2 °F 29.9 in Calm   0.9 mph 98% 0 in
19:02 32 °F 30.2 °F 29.9 in Calm     98% 0 in
19:07 32 °F 30.2 °F 29.9 in Calm   3.6 mph 98% 0 in
19:27 32 °F 30.2 °F 29.9 in Calm   3.4 mph 98% 0 in
19:37 32 °F 30.2 °F 29.9 in SSW 2.5 mph 4.7 mph 98% 0 in
19:42 32 °F 30.2 °F 29.9 in Calm   4.3 mph 98% 0 in
19:47 32 °F 30.2 °F 29.9 in Calm   4.7 mph 98% 0 in
19:52 32 °F 30.2 °F 29.9 in Calm   5.6 mph 98% 0 in
19:57 34 °F 33.8 °F 29.9 in South 4.7 mph 6.3 mph 98% 0 in
20:02 34 °F 33.8 °F 29.9 in SSW 3.1 mph 6.3 mph 98% 0 in
20:08 34 °F 33.8 °F 29.9 in SSW 3.4 mph 6.5 mph 98% 0 in
20:33 34 °F 33.8 °F 29.9 in SSW 2.9 mph 7.4 mph 98% 0 in
20:38 35.1 °F 35.6 °F 29.9 in SSW 3.8 mph 6.5 mph 98% 0 in
20:43 35.1 °F 35.6 °F 29.9 in SSW 2.9 mph 5.8 mph 98% 0 in
20:48 34.9 °F 35.6 °F 29.9 in South 2.9 mph 4.9 mph 98% 0 in
20:53 34.9 °F 35.6 °F 29.9 in SSW 4.7 mph 5.8 mph 98% 0 in
21:03 35.1 °F 35.6 °F 29.9 in SSW 5.8 mph 6.5 mph 98% 0 in
21:08 34.9 °F 35.6 °F 29.9 in SSW 4 mph 6.5 mph 98% 0 in
21:13 35.1 °F 35.6 °F 29.9 in South 5.6 mph 7.8 mph 98% 0 in
21:18 35.1 °F 35.6 °F 29.9 in South 5.4 mph 7.8 mph 98% 0 in
21:23 35.1 °F 35.6 °F 29.9 in South 5.4 mph 8.7 mph 98% 0 in
21:33 35.1 °F 35.6 °F 29.9 in SSW 3.8 mph 8.5 mph 98% 0 in
21:38 35.1 °F 35.6 °F 29.9 in SSW 2.9 mph 6.5 mph 98% 0 in
21:54 35.1 °F 35.6 °F 29.9 in South 6.9 mph 9.2 mph 98% 0 in
21:59 35.1 °F 35.6 °F 29.9 in SSE 4.3 mph 9.2 mph 98% 0 in
22:04 35.1 °F 35.6 °F 29.9 in SSW 4.3 mph 7.6 mph 98% 0 in
22:09 35.1 °F 35.6 °F 29.9 in SSW 8.7 mph 8.7 mph 98% 0 in
22:14 35.1 °F 35.6 °F 29.9 in South 3.8 mph 8.7 mph 98% 0 in
22:19 35.1 °F 35.6 °F 29.9 in South 5.4 mph 9.8 mph 98% 0 in
22:29 35.1 °F 35.6 °F 29.9 in SSW 4 mph 8.5 mph 98% 0 in
22:34 34.9 °F 35.6 °F 29.9 in SSW 3.8 mph 7.4 mph 98% 0 in
22:44 34.9 °F 35.6 °F 29.9 in South 7.4 mph 10.1 mph 98% 0 in
22:49 34.9 °F 35.6 °F 29.9 in SSW 5.4 mph 10.1 mph 98% 0 in
22:54 34.9 °F 35.6 °F 29.9 in SSW 5.8 mph 9.8 mph 98% 0 in
22:59 34.9 °F 35.6 °F 29.9 in South 8.1 mph 10.1 mph 98% 0 in
23:09 34.9 °F 35.6 °F 29.9 in South 7.2 mph 10.1 mph 98% 0 in
23:14 34.9 °F 35.6 °F 29.8 in SSE 10.3 mph 10.3 mph 98% 0 in
23:19 35.1 °F 35.6 °F 29.8 in SSW 9.4 mph 12.5 mph 98% 0 in
23:24 35.2 °F 35.6 °F 29.8 in SSW 6.5 mph 12.5 mph 98% 0 in
23:34 35.4 °F 35.6 °F 29.9 in South 8.7 mph 11 mph 98% 0 in
23:44 35.4 °F 35.6 °F 29.9 in SSW 8.1 mph 10.5 mph 98% 0 in
23:55 35.6 °F 35.6 °F 29.9 in South 5.8 mph 10.1 mph 98% 0 in
Données Historique de Météo Turbie

Mise a jour : 22/05/2018 04:24:13
Généré par Cumulus 1.9.4 (1099)